GW0774 Weather Reports


time (UTC)temp
F
wind
direction
speed
knots
gust
knots
rain 1hr
in
rain 24hr
in
rain mn
in
humidity
%
barometer
mb
20260906062038 58 267 6.1 12.2 0.00 0.00 0.00 75 1003.5
20260906061607 57 257 3.5 11.3 0.00 0.00 0.00 76 1003.4
20260906061039 58 229 2.6 11.3 0.00 0.00 0.00 75 1003.4
20260906060539 58 265 5.2 11.3 0.00 0.00 0.00 75 1003.3
20260906060055 58 268 3.5 9.6 0.00 0.00 0.00 75 1003.5
20260906055539 58 299 5.2 9.6 0.00 0.00 0.00 74 1003.5
20260906055036 58 290 6.1 11.3 0.00 0.00 0.00 73 1003.4
20260906054559 58 288 6.1 13.9 0.00 0.00 0.00 73 1003.4
20260906054041 58 264 5.2 13.9 0.00 0.00 0.00 73 1003.6
20260906053539 58 271 5.2 10.4 0.00 0.00 0.00 73 1003.8
20260906053100 58 280 5.2 13.0 0.00 0.00 0.00 73 1003.8
20260906052548 59 273 6.1 14.8 0.00 0.00 0.00 72 1004.0
20260906052040 59 269 8.7 18.2 0.00 0.00 0.00 71 1004.2
20260906051603 59 277 8.7 18.2 0.00 0.00 0.00 71 1004.4
20260906051039 59 297 7.0 12.2 0.00 0.00 0.00 72 1004.5
20260906050543 58 321 3.5 9.6 0.00 0.00 0.00 74 1004.4
20260906050056 59 284 4.3 13.9 0.00 0.00 0.00 73 1004.4
20260906045543 59 267 6.1 13.9 0.00 0.00 0.00 72 1004.5
20260906045039 59 286 7.0 15.6 0.00 0.00 0.00 71 1004.4
20260906044559 59 292 8.7 15.6 0.00 0.00 0.00 71 1004.4
20260906044040 59 284 8.7 15.6 0.00 0.00 0.00 71 1004.6
20260906043539 59 248 8.7 14.8 0.00 0.00 0.00 70 1004.6
20260906043056 59 275 9.6 14.8 0.00 0.00 0.00 70 1004.6
20260906042542 60 306 8.7 16.5 0.00 0.00 0.00 70 1004.8
20260906042039 60 283 7.8 16.5 0.00 0.00 0.00 69 1004.9
20260906041555 60 300 9.6 16.5 0.00 0.00 0.00 68 1005.0
20260906041038 60 277 8.7 16.5 0.00 0.00 0.00 68 1005.1
20260906040539 60 281 8.7 16.5 0.00 0.00 0.00 70 1005.1
20260906040105 61 279 9.6 13.9 0.00 0.00 0.00 68 1005.2
20260906035541 61 269 8.7 13.9 0.00 0.00 0.00 68 1005.1
20260906035036 61 283 8.7 13.0 0.00 0.00 0.00 67 1005.2
20260906034559 61 292 7.0 13.9 0.00 0.00 0.00 69 1005.1
20260906034038 62 292 7.0 13.9 0.00 0.00 0.00 68 1005.1
20260906033538 62 267 8.7 13.9 0.00 0.00 0.00 68 1005.3
20260906033058 62 270 8.7 14.8 0.00 0.00 0.00 67 1005.3
20260906032539 62 323 7.8 14.8 0.00 0.00 0.00 68 1005.4
20260906032041 62 267 8.7 16.5 0.00 0.00 0.00 68 1005.6
20260906031607 61 304 9.6 16.5 0.00 0.00 0.00 69 1005.7
20260906031040 61 275 10.4 14.8 0.00 0.00 0.00 68 1005.7
20260906030540 61 278 10.4 15.6 0.00 0.00 0.00 69 1005.7
20260906030059 61 268 9.6 15.6 0.00 0.00 0.00 68 1005.7
20260906025538 61 11 8.7 14.8 0.00 0.02 0.00 67 1005.6
20260906025040 61 271 8.7 14.8 0.00 0.02 0.00 67 1005.7
20260906024558 62 288 9.6 14.8 0.00 0.02 0.00 66 1005.7
20260906024039 62 281 7.8 14.8 0.00 0.02 0.00 66 1005.7
20260906023540 63 284 7.8 14.8 0.00 0.02 0.00 65 1005.6
20260906023055 63 280 7.0 13.9 0.00 0.02 0.00 68 1005.7
20260906022539 63 286 8.7 14.8 0.00 0.02 0.00 66 1005.7
20260906022042 64 347 6.1 21.7 0.00 0.02 0.00 65 1005.7
20260906021557 64 278 8.7 23.5 0.00 0.02 0.00 66 1005.8
20260906021038 64 274 13.0 23.5 0.00 0.02 0.00 64 1005.8
20260906020539 64 279 10.4 23.5 0.00 0.02 0.00 63 1006.0
20260906015539 64 279 9.6 15.6 0.00 0.02 0.00 66 1006.2
20260906015039 64 294 7.8 16.5 0.00 0.02 0.00 64 1006.3
20260906014552 64 269 9.6 16.5 0.00 0.02 0.00 67 1006.4
20260906014039 63 254 10.4 16.5 0.00 0.02 0.00 64 1006.5
20260906013539 63 262 7.8 14.8 0.00 0.02 0.00 68 1006.6
20260906013103 63 67 7.8 16.5 0.00 0.02 0.00 68 1006.7
20260906012543 63 265 7.8 16.5 0.00 0.02 0.00 68 1006.8
20260906012038 62 270 8.7 17.4 0.00 0.02 0.00 69 1006.8
20260906011550 61 286 9.6 17.4 0.00 0.02 0.00 68 1006.8
20260906011038 62 292 7.8 20.9 0.00 0.02 0.00 70 1006.9
20260906010539 62 296 12.2 20.9 0.00 0.02 0.00 68 1007.2
20260906010059 62 286 9.6 20.0 0.00 0.02 0.00 73 1007.5
20260906005540 62 283 9.6 20.0 0.00 0.02 0.00 73 1007.6
20260906005039 62 256 10.4 18.2 0.00 0.02 0.00 73 1007.8
20260906004554 61 301 11.3 18.2 0.00 0.02 0.00 71 1007.9
20260906004039 61 241 10.4 17.4 0.00 0.02 0.00 73 1008.0
20260906003539 61 290 11.3 18.2 0.00 0.02 0.00 73 1008.2
20260906003050 61 267 10.4 18.2 0.00 0.02 0.00 75 1008.4
20260906002540 60 284 10.4 16.5 0.00 0.02 0.00 75 1008.6
20260906002039 60 242 7.0 12.2 0.00 0.02 0.00 78 1008.6
20260906001547 60 260 7.8 13.0 0.00 0.02 0.00 78 1008.9
20260906001039 59 281 6.1 15.6 0.00 0.02 0.00 78 1009.0
20260906000539 60 266 7.0 15.6 0.00 0.02 0.00 77 1009.1
20260906000057 59 286 8.7 15.6 0.00 0.02 0.00 78 1009.2
20260905235539 59 298 9.6 15.6 0.00 0.02 0.00 79 1009.3
20260905235038 59 284 8.7 15.6 0.00 0.02 0.00 79 1009.3
20260905234553 59 309 9.6 14.8 0.00 0.02 0.00 79 1009.5
20260905234039 59 262 7.8 13.0 0.00 0.02 0.00 81 1009.6
20260905233539 58 279 7.0 14.8 0.00 0.02 0.00 80 1009.7
20260905233050 58 261 7.0 14.8 0.00 0.02 0.00 80 1009.9
20260905232539 58 254 7.0 12.2 0.00 0.02 0.00 81 1010.0
20260905232040 58 273 7.8 12.2 0.00 0.02 0.00 80 1010.0
20260905231559 58 310 7.0 10.4 0.00 0.02 0.00 81 1010.1
20260905231039 58 273 5.2 9.6 0.00 0.02 0.00 82 1010.1
20260905230539 57 292 5.2 13.0 0.00 0.02 0.00 81 1010.0
20260905230058 57 315 5.2 13.0 0.00 0.02 0.00 81 1010.2
20260905225539 57 276 7.8 13.0 0.00 0.02 0.00 80 1010.3
20260905225039 57 259 7.0 11.3 0.00 0.02 0.00 80 1010.2
20260905224602 57 294 7.0 11.3 0.00 0.02 0.00 81 1010.4
20260905224039 57 271 6.1 11.3 0.00 0.02 0.00 82 1010.4
20260905223538 57 263 7.0 11.3 0.00 0.02 0.00 83 1010.4
20260905223058 57 286 5.2 13.0 0.00 0.02 0.00 83 1010.6
20260905222539 57 277 7.8 13.0 0.00 0.02 0.00 82 1010.7
20260905222039 57 277 7.8 14.8 0.00 0.02 0.00 81 1010.7
20260905221602 57 285 7.8 14.8 0.00 0.02 0.00 82 1010.8
20260905221039 57 275 8.7 14.8 0.00 0.02 0.00 82 1011.0
20260905220539 56 260 8.7 13.0 0.00 0.02 0.00 82 1010.9
20260905220104 56 276 7.0 11.3 0.00 0.02 0.00 82 1010.9
20260905215539 56 283 6.1 10.4 0.00 0.02 0.00 83 1010.9
20260905215038 56 275 4.3 8.7 0.00 0.02 0.00 83 1011.1
20260905214556 56 261 4.3 8.7 0.00 0.02 0.00 83 1011.0
20260905214039 56 302 4.3 8.7 0.00 0.02 0.00 83 1011.0
20260905213540 56 270 4.3 8.7 0.00 0.02 0.00 83 1011.3
20260905213057 56 245 3.5 7.8 0.00 0.02 0.00 84 1011.4
20260905212540 56 225 2.6 6.1 0.00 0.02 0.00 84 1011.4
20260905212039 56 267 1.7 6.1 0.00 0.02 0.00 85 1011.4
20260905211626 55 226 0.9 6.1 0.00 0.02 0.00 85 1011.4
20260905211039 55 246 1.7 6.1 0.00 0.02 0.00 86 1011.4
20260905210539 55 244 0.9 3.5 0.00 0.02 0.00 86 1011.6
20260905210055 55 0 0.9 2.6 0.00 0.02 0.00 86 1011.6
20260905205539 55 245 0.9 3.5 0.00 0.02 0.00 87 1011.7
20260905205039 55 0 0.9 3.5 0.00 0.02 0.00 87 1011.7
20260905204605 54 245 1.7 3.5 0.00 0.02 0.00 88 1011.7
20260905204039 54 245 0.0 4.3 0.00 0.02 0.00 88 1011.7
20260905203539 54 245 0.9 4.3 0.00 0.02 0.00 88 1011.6
20260905203114 53 244 0.9 3.5 0.00 0.02 0.00 88 1011.8
20260905202539 53 244 0.0 2.6 0.00 0.02 0.00 88 1011.9
20260905202039 53 244 0.0 2.6 0.00 0.02 0.00 89 1011.9
20260905201558 53 244 0.0 2.6 0.00 0.02 0.00 89 1012.0
20260905201039 53 245 0.0 1.7 0.00 0.02 0.00 89 1012.0
20260905200539 52 244 0.0 1.7 0.00 0.02 0.00 89 1012.0
20260905195541 52 0 0.0 3.5 0.00 0.02 0.00 89 1012.3
20260905195039 52 0 0.0 3.5 0.00 0.02 0.00 89 1012.2
20260905194558 52 248 0.9 5.2 0.00 0.02 0.00 90 1012.1
20260905194040 52 0 0.0 5.2 0.00 0.02 0.00 90 1012.1
20260905193539 52 100 0.9 5.2 0.00 0.02 0.00 90 1012.0
20260905193054 51 270 0.9 5.2 0.00 0.02 0.00 90 1011.9
20260905192539 51 266 0.0 5.2 0.00 0.02 0.00 90 1011.9
20260905192040 51 265 0.9 5.2 0.00 0.02 0.00 90 1011.9
20260905191600 51 258 1.7 3.5 0.00 0.02 0.00 90 1011.9
20260905191039 51 257 0.9 3.5 0.00 0.02 0.00 90 1012.0
20260905190539 51 258 1.7 10.4 0.00 0.02 0.00 90 1012.0
20260905185539 51 268 0.9 4.3 0.00 0.02 0.00 91 1011.9
20260905185042 51 215 0.0 4.3 0.00 0.02 0.00 90 1011.9
20260905184610 51 273 0.0 6.1 0.00 0.02 0.00 90 1011.9
20260905184038 51 236 1.7 6.1 0.00 0.02 0.00 90 1011.8
20260905183540 51 268 3.5 6.1 0.00 0.02 0.00 91 1011.9
20260905183059 51 253 1.7 3.5 0.00 0.02 0.00 91 1011.7
20260905182539 51 253 0.9 2.6 0.00 0.02 0.00 91 1011.7
20260905182039 51 253 0.0 2.6 0.00 0.02 0.00 91 1011.8
20260905181604 51 0 0.0 2.6 0.00 0.02 0.00 91 1011.9
20260905181040 51 253 0.0 2.6 0.00 0.02 0.00 91 1012.0
20260905180539 51 252 0.0 4.3 0.00 0.02 0.00 91 1012.0
20260905180049 51 79 0.0 4.3 0.00 0.02 0.00 91 1012.1
20260905175539 51 0 0.0 1.7 0.00 0.02 0.00 91 1012.2
20260905175041 51 88 0.0 2.6 0.00 0.02 0.00 91 1012.2
20260905174556 51 88 0.0 2.6 0.00 0.02 0.00 91 1012.2
20260905174039 51 89 0.0 1.7 0.00 0.02 0.00 91 1012.0
20260905173542 52 92 0.0 3.5 0.00 0.02 0.00 91 1012.0
20260905173056 52 92 0.0 5.2 0.00 0.02 0.00 91 1011.9
20260905172539 52 78 0.9 5.2 0.00 0.02 0.00 91 1012.0
20260905172039 52 68 0.9 5.2 0.00 0.02 0.00 92 1012.0
20260905171553 52 278 0.9 7.8 0.00 0.02 0.00 92 1012.0
20260905171039 52 267 1.7 9.6 0.00 0.02 0.00 92 1012.0
20260905170539 52 294 3.5 9.6 0.00 0.02 0.00 93 1011.9
20260905170050 52 248 1.7 5.2 0.00 0.02 0.00 92 1011.8
20260905165542 52 261 0.0 3.5 0.00 0.02 0.00 92 1011.7
20260905165039 52 205 0.9 3.5 0.00 0.02 0.00 93 1011.8
20260905164559 52 266 0.0 3.5 0.00 0.02 0.00 92 1011.8
20260905164043 52 0 0.0 3.5 0.00 0.02 0.00 92 1011.6
20260905163536 52 0 0.0 3.5 0.00 0.02 0.00 92 1011.6
20260905163054 52 82 0.9 3.5 0.00 0.02 0.00 92 1011.5
20260905162540 52 258 0.9 3.5 0.00 0.02 0.00 92 1011.6
20260905162038 52 0 0.0 2.6 0.00 0.02 0.00 92 1011.5
20260905161553 52 0 0.0 5.2 0.00 0.02 0.00 92 1011.6
20260905161036 52 0 0.9 5.2 0.00 0.02 0.00 92 1011.5
20260905160539 52 92 0.9 6.1 0.00 0.02 0.00 92 1011.6
20260905160115 53 68 0.0 6.1 0.00 0.02 0.00 92 1011.6
20260905155539 53 260 0.9 6.1 0.00 0.02 0.00 92 1011.5
20260905155041 53 32 0.9 7.8 0.00 0.02 0.00 92 1011.6
20260905154602 53 275 3.5 7.8 0.00 0.02 0.00 92 1011.6
20260905154040 53 0 1.7 7.8 0.00 0.02 0.00 92 1011.7
20260905153540 53 271 1.7 7.8 0.00 0.02 0.00 92 1011.7
20260905153053 53 236 0.9 4.3 0.00 0.02 0.00 92 1011.8
20260905152539 53 236 1.7 5.2 0.00 0.02 0.00 92 1011.9
20260905152037 53 236 0.9 5.2 0.00 0.02 0.00 92 1012.1
20260905151601 53 240 0.0 2.6 0.00 0.02 0.00 92 1012.0
20260905151039 53 240 0.9 2.6 0.00 0.02 0.00 91 1012.0
20260905150539 53 219 0.0 1.7 0.00 0.02 0.00 91 1012.0
20260905150048 54 0 0.0 3.5 0.00 0.02 0.00 92 1012.1
20260905145540 54 0 0.0 4.3 0.00 0.02 0.00 92 1012.1
20260905145039 54 60 0.0 4.3 0.00 0.02 0.00 92 1012.2
20260905144553 54 257 0.9 4.3 0.00 0.02 0.00 92 1012.2
20260905144041 54 0 0.0 2.6 0.00 0.02 0.00 92 1012.4
20260905143539 54 79 0.0 3.5 0.00 0.02 0.00 92 1012.4
20260905143056 54 78 0.9 3.5 0.00 0.02 0.00 92 1012.7
20260905142542 53 108 0.0 4.3 0.00 0.02 0.00 91 1012.7
20260905142036 54 153 0.0 4.3 0.00 0.02 0.00 91 1012.7
20260905141551 54 67 0.0 4.3 0.00 0.02 0.00 91 1012.8
20260905141035 54 81 1.7 5.2 0.00 0.02 0.00 91 1012.7
20260905140542 54 273 0.9 6.1 0.00 0.02 0.00 92 1012.8
20260905140046 54 52 1.7 6.1 0.00 0.02 0.00 92 1012.8
20260905135537 54 275 0.9 6.1 0.00 0.02 0.00 92 1012.8
20260905135040 54 273 2.6 6.1 0.00 0.02 0.00 92 1012.7
20260905134605 54 263 1.7 6.1 0.00 0.02 0.00 91 1012.9
20260905134052 54 283 1.7 6.1 0.00 0.02 0.00 91 1012.9
20260905133539 54 270 1.7 7.8 0.00 0.02 0.00 90 1012.9
20260905133052 54 257 0.9 11.3 0.00 0.02 0.00 91 1013.0
20260905132539 54 290 2.6 11.3 0.00 0.02 0.00 91 1013.0
20260905132039 54 273 4.3 9.6 0.00 0.02 0.00 91 1013.1
20260905131557 54 265 3.5 8.7 0.00 0.02 0.00 90 1012.9
20260905131039 54 252 2.6 7.0 0.00 0.02 0.00 90 1012.9
20260905130540 54 278 2.6 7.0 0.00 0.02 0.00 90 1012.9
20260905130059 54 270 3.5 7.8 0.00 0.02 0.00 90 1012.9
20260905125538 54 293 4.3 7.8 0.00 0.02 0.00 91 1012.9
20260905125040 54 294 5.2 7.8 0.00 0.02 0.00 91 1012.8
20260905124558 53 283 3.5 7.0 0.00 0.02 0.00 91 1013.0
20260905124039 53 278 1.7 5.2 0.00 0.02 0.00 90 1013.1
20260905123539 53 278 0.9 1.7 0.00 0.02 0.00 89 1013.1
20260905123054 53 278 0.0 1.7 0.00 0.02 0.00 89 1013.1
20260905122540 54 278 1.7 3.5 0.00 0.02 0.00 89 1013.1
20260905122038 54 278 0.9 3.5 0.00 0.02 0.00 89 1013.0
20260905121601 54 278 0.0 3.5 0.00 0.02 0.00 89 1013.0
20260905121040 54 278 0.0 3.5 0.00 0.02 0.00 89 1013.0
20260905120539 54 278 0.0 7.0 0.00 0.02 0.00 89 1013.3
20260905120115 55 278 0.9 7.8 0.00 0.02 0.00 89 1013.3
20260905115539 55 32 3.5 10.4 0.00 0.02 0.02 89 1013.2
20260905115039 55 271 5.2 12.2 0.00 0.02 0.02 89 1013.2
20260905114555 55 244 6.1 12.2 0.00 0.02 0.02 90 1013.1
20260905114039 55 282 7.0 12.2 0.00 0.02 0.02 90 1013.1
20260905113540 54 257 6.1 10.4 0.00 0.02 0.02 90 1013.0
20260905113050 54 286 5.2 10.4 0.00 0.02 0.02 90 1012.9
20260905112541 53 236 2.6 7.8 0.00 0.02 0.02 89 1012.9
20260905112039 53 67 2.6 7.8 0.00 0.02 0.02 89 1012.8
20260905111611 54 248 0.9 7.8 0.00 0.02 0.02 89 1012.8
20260905111039 53 30 2.6 7.8 0.00 0.02 0.02 89 1013.0
20260905110539 53 268 2.6 7.8 0.00 0.02 0.02 89 1013.2
20260905110100 53 297 1.7 7.0 0.00 0.02 0.02 88 1013.1
20260905105536 54 253 3.5 7.0 0.00 0.02 0.02 88 1013.2
20260905105039 54 289 3.5 15.6 0.00 0.02 0.02 88 1013.3
20260905104553 54 55 6.1 21.7 0.00 0.02 0.02 88 1012.9
20260905104040 54 267 12.2 21.7 0.00 0.02 0.02 88 1012.8
20260905103539 54 275 11.3 16.5 0.00 0.02 0.02 87 1012.9
20260905103053 54 294 7.8 16.5 0.00 0.02 0.02 87 1013.1
20260905102539 54 271 9.6 16.5 0.00 0.02 0.02 86 1013.4
20260905102039 55 244 5.2 16.5 0.00 0.02 0.02 86 1013.6
20260905101547 55 249 8.7 16.5 0.00 0.02 0.02 85 1013.5
20260905101039 55 279 9.6 15.6 0.00 0.02 0.02 85 1013.2
20260905100539 54 278 8.7 15.6 0.00 0.02 0.02 85 1013.1
20260905100059 54 273 8.7 16.5 0.00 0.02 0.02 86 1013.1
20260905095539 54 296 8.7 16.5 0.00 0.02 0.02 87 1013.0
20260905095039 54 265 7.8 13.0 0.00 0.02 0.02 87 1013.0
20260905094558 54 275 7.0 10.4 0.00 0.02 0.02 87 1013.2
20260905094037 54 284 6.1 10.4 0.00 0.02 0.02 86 1013.1
20260905093540 54 273 5.2 11.3 0.00 0.02 0.02 86 1013.3
20260905093050 54 312 6.1 11.3 0.00 0.02 0.02 86 1013.2
20260905092544 53 44 5.2 10.4 0.00 0.02 0.02 87 1013.2
20260905092039 53 263 5.2 12.2 0.00 0.02 0.02 88 1013.1
20260905091621 53 266 5.2 12.2 0.00 0.02 0.02 88 1012.7
20260905091040 53 293 4.3 12.2 0.00 0.02 0.02 89 1012.4
20260905090539 53 271 3.5 8.7 0.00 0.02 0.02 89 1012.2
20260905090118 53 248 2.6 9.6 0.00 0.02 0.02 89 1012.3
20260905085540 53 289 5.2 11.3 0.00 0.02 0.02 89 1012.3
20260905085039 53 257 6.1 16.5 0.00 0.02 0.02 89 1012.5
20260905084605 53 276 9.6 18.2 0.00 0.02 0.02 89 1012.1
20260905084040 53 309 11.3 20.9 0.00 0.02 0.02 89 1012.5
20260905083540 53 268 11.3 20.9 0.00 0.02 0.02 90 1012.7
20260905083050 53 297 11.3 20.9 0.00 0.02 0.02 90 1013.0
20260905082540 53 270 9.6 16.5 0.00 0.02 0.02 90 1013.2
20260905082040 54 298 10.4 16.5 0.00 0.02 0.02 90 1013.6
20260905081546 54 275 10.4 15.6 0.00 0.02 0.02 90 1013.9
20260905081039 53 288 7.8 14.8 0.00 0.02 0.02 91 1013.9
20260905080543 54 263 9.6 15.6 0.00 0.02 0.02 90 1014.0
20260905080101 54 283 9.6 15.6 0.00 0.02 0.02 90 1013.9
20260905075540 54 279 9.6 15.6 0.00 0.02 0.02 89 1013.9
20260905075040 54 267 8.7 15.6 0.00 0.02 0.02 87 1014.0
20260905074551 54 272 11.3 17.4 0.00 0.02 0.02 86 1013.8
20260905074040 54 301 11.3 17.4 0.00 0.02 0.02 86 1013.6
20260905073552 54 260 10.4 17.4 0.00 0.02 0.02 86 1013.5
20260905073055 54 269 11.3 17.4 0.00 0.02 0.02 85 1013.4
20260905072540 55 288 10.4 15.6 0.00 0.02 0.02 84 1013.2
20260905072041 55 264 7.8 21.7 0.00 0.02 0.02 83 1013.3
20260905071558 55 295 10.4 21.7 0.00 0.02 0.02 83 1013.3
20260905071043 55 308 12.2 20.0 0.00 0.02 0.02 83 1013.1
20260905070539 54 273 11.3 20.0 0.00 0.02 0.02 84 1013.0
20260905070101 55 248 10.4 23.5 0.00 0.02 0.02 83 1012.9
20260905065541 55 232 10.4 23.5 0.00 0.02 0.02 82 1012.8
20260905065039 55 311 13.0 21.7 0.00 0.02 0.02 81 1012.5
20260905064550 55 300 13.0 21.7 0.00 0.02 0.02 81 1012.4
20260905064038 55 293 14.8 21.7 0.00 0.02 0.02 80 1012.4
20260905063539 55 319 13.0 26.1 0.00 0.02 0.02 81 1012.3
20260905063048 55 292 11.3 26.1 0.00 0.02 0.02 82 1012.5
20260905062538 55 284 13.9 26.1 0.00 0.02 0.02 82 1012.5